Time,TemperatureF,DewpointF,PressureIn,WindDirection,WindDirectionDegrees,WindSpeedMPH,WindSpeedGustMPH,Humidity,HourlyPrecipIn,Conditions,Clouds,dailyrainin,SoftwareType,DateUTC
2013-01-22 00:05:00,17.5,16.0,29.80,ESE,107,0.0,0.0,93,0.00,,,0.00,weatherlink.com 1.10,2013-01-22 05:05:00,
2013-01-22 00:19:00,17.4,16.0,29.80,ESE,107,0.0,0.0,93,0.00,,,0.00,weatherlink.com 1.10,2013-01-22 05:19:00,
2013-01-22 00:34:00,17.8,16.0,29.80,ESE,107,0.0,0.0,92,0.00,,,0.00,weatherlink.com 1.10,2013-01-22 05:34:00,
2013-01-22 00:49:00,18.0,15.0,29.80,East,84,0.0,2.0,89,0.00,,,0.00,weatherlink.com 1.10,2013-01-22 05:49:00,
2013-01-22 01:05:00,18.6,15.0,29.81,NW,304,0.0,0.0,85,0.00,,,0.00,weatherlink.com 1.10,2013-01-22 06:05:00,
2013-01-22 01:20:00,18.1,14.0,29.81,NW,305,0.0,0.0,85,0.00,,,0.00,weatherlink.com 1.10,2013-01-22 06:20:00,
2013-01-22 01:35:00,17.5,14.0,29.82,NW,304,0.0,0.0,86,0.00,,,0.00,weatherlink.com 1.10,2013-01-22 06:35:00,
2013-01-22 01:50:00,17.3,14.0,29.82,NW,304,0.0,0.0,86,0.00,,,0.00,weatherlink.com 1.10,2013-01-22 06:50:00,
2013-01-22 02:05:00,17.3,14.0,29.83,NW,304,0.0,0.0,87,0.00,,,0.00,weatherlink.com 1.10,2013-01-22 07:05:00,
2013-01-22 02:20:00,17.4,14.0,29.84,NW,304,0.0,0.0,87,0.00,,,0.00,weatherlink.com 1.10,2013-01-22 07:20:00,
2013-01-22 02:35:00,18.5,13.0,29.84,NNW,338,0.0,1.0,80,0.00,,,0.00,weatherlink.com 1.10,2013-01-22 07:35:00,
2013-01-22 02:50:00,19.6,12.0,29.84,West,266,0.0,1.0,73,0.00,,,0.00,weatherlink.com 1.10,2013-01-22 07:50:00,
2013-01-22 03:05:00,19.8,12.0,29.85,West,278,0.0,2.0,70,0.00,,,0.00,weatherlink.com 1.10,2013-01-22 08:05:00,
2013-01-22 03:20:00,20.2,11.0,29.85,NNW,329,0.0,4.0,67,0.00,,,0.00,weatherlink.com 1.10,2013-01-22 08:20:00,
2013-01-22 03:35:00,20.2,10.0,29.86,SW,231,0.0,4.0,64,0.00,,,0.00,weatherlink.com 1.10,2013-01-22 08:35:00,
2013-01-22 03:50:00,20.2,8.0,29.87,SW,226,0.0,6.0,59,0.00,,,0.00,weatherlink.com 1.10,2013-01-22 08:50:00,
2013-01-22 04:05:00,19.8,6.0,29.87,NNW,346,0.0,6.0,56,0.00,,,0.00,weatherlink.com 1.10,2013-01-22 09:05:00,
2013-01-22 04:20:00,19.3,5.0,29.87,ESE,107,0.0,7.0,53,0.00,,,0.00,weatherlink.com 1.10,2013-01-22 09:20:00,
2013-01-22 04:35:00,19.0,4.0,29.89,SE,124,0.0,6.0,53,0.00,,,0.00,weatherlink.com 1.10,2013-01-22 09:35:00,
2013-01-22 04:50:00,18.6,4.0,29.89,East,86,0.0,5.0,54,0.00,,,0.00,weatherlink.com 1.10,2013-01-22 09:50:00,
2013-01-22 05:05:00,18.3,5.0,29.89,South,182,1.0,4.0,55,0.00,,,0.00,weatherlink.com 1.10,2013-01-22 10:05:00,
2013-01-22 05:20:00,17.9,5.0,29.90,ESE,107,0.0,6.0,57,0.00,,,0.00,weatherlink.com 1.10,2013-01-22 10:20:00,
2013-01-22 05:35:00,17.6,5.0,29.91,SW,231,0.0,3.0,57,0.00,,,0.00,weatherlink.com 1.10,2013-01-22 10:35:00,
2013-01-22 05:50:00,17.5,4.0,29.92,SW,226,1.0,7.0,56,0.00,,,0.00,weatherlink.com 1.10,2013-01-22 10:50:00,
2013-01-22 06:05:00,17.2,4.0,29.93,ESE,107,5.0,7.0,57,0.00,,,0.00,weatherlink.com 1.10,2013-01-22 11:05:00,
2013-01-22 06:20:00,17.1,2.0,29.93,SSW,210,0.0,4.0,52,0.00,,,0.00,weatherlink.com 1.10,2013-01-22 11:20:00,
2013-01-22 06:36:00,16.8,0.0,29.94,WSW,256,0.0,6.0,47,0.00,,,0.00,weatherlink.com 1.10,2013-01-22 11:36:00,
2013-01-22 06:51:00,16.6,-1.0,29.95,ESE,108,5.0,9.0,47,0.00,,,0.00,weatherlink.com 1.10,2013-01-22 11:51:00,
2013-01-22 07:06:00,16.5,-2.0,29.95,SSW,210,1.0,6.0,45,0.00,,,0.00,weatherlink.com 1.10,2013-01-22 12:06:00,
2013-01-22 07:21:00,16.1,-1.0,29.96,SE,143,0.0,5.0,46,0.00,,,0.00,weatherlink.com 1.10,2013-01-22 12:21:00,
2013-01-22 07:36:00,16.0,-2.0,29.96,NNW,333,0.0,5.0,45,0.00,,,0.00,weatherlink.com 1.10,2013-01-22 12:36:00,
2013-01-22 08:06:00,15.9,-2.0,29.97,SSW,207,0.0,8.0,45,0.00,,,0.00,weatherlink.com 1.10,2013-01-22 13:06:00,
2013-01-22 08:21:00,16.1,-2.0,29.98,ESE,105,0.0,3.0,45,0.00,,,0.00,weatherlink.com 1.10,2013-01-22 13:21:00,
2013-01-22 08:51:00,17.0,-3.0,29.99,WSW,243,0.0,6.0,42,0.00,,,0.00,weatherlink.com 1.10,2013-01-22 13:51:00,
2013-01-22 09:06:00,18.7,-1.0,29.99,ESE,110,1.0,4.0,42,0.00,,,0.00,weatherlink.com 1.10,2013-01-22 14:06:00,
2013-01-22 09:51:00,20.9,-2.0,30.01,SSE,161,0.0,5.0,37,0.00,,,0.00,weatherlink.com 1.10,2013-01-22 14:51:00,
2013-01-22 10:07:00,20.2,-3.0,30.01,SE,128,2.0,6.0,36,0.00,,,0.00,weatherlink.com 1.10,2013-01-22 15:07:00,
2013-01-22 10:22:00,19.6,-3.0,30.01,WNW,293,2.0,6.0,37,0.00,,,0.00,weatherlink.com 1.10,2013-01-22 15:22:00,
2013-01-22 10:37:00,20.3,-4.0,30.01,NE,37,0.0,9.0,34,0.00,,,0.00,weatherlink.com 1.10,2013-01-22 15:37:00,
2013-01-22 10:52:00,21.2,-3.0,30.00,SSW,197,1.0,6.0,35,0.00,,,0.00,weatherlink.com 1.10,2013-01-22 15:52:00,
2013-01-22 11:07:00,21.2,-3.0,30.00,South,170,1.0,7.0,35,0.00,,,0.00,weatherlink.com 1.10,2013-01-22 16:07:00,
2013-01-22 11:22:00,21.2,-3.0,30.00,SSW,210,1.0,7.0,34,0.00,,,0.00,weatherlink.com 1.10,2013-01-22 16:22:00,
2013-01-22 11:37:00,21.2,-3.0,30.00,SSW,198,1.0,6.0,35,0.00,,,0.00,weatherlink.com 1.10,2013-01-22 16:37:00,
2013-01-22 11:52:00,20.7,-2.0,29.99,NE,56,0.0,5.0,37,0.00,,,0.00,weatherlink.com 1.10,2013-01-22 16:52:00,
2013-01-22 12:07:00,21.3,-3.0,29.99,WSW,250,1.0,6.0,34,0.00,,,0.00,weatherlink.com 1.10,2013-01-22 17:07:00,
2013-01-22 12:22:00,20.3,-4.0,29.99,SSE,162,2.0,6.0,34,0.00,,,0.00,weatherlink.com 1.10,2013-01-22 17:22:00,
2013-01-22 12:37:00,20.1,-4.0,29.98,East,94,1.0,5.0,35,0.00,,,0.00,weatherlink.com 1.10,2013-01-22 17:37:00,
2013-01-22 12:52:00,20.4,-4.0,29.98,WNW,289,0.0,7.0,34,0.00,,,0.00,weatherlink.com 1.10,2013-01-22 17:52:00,
2013-01-22 13:07:00,20.4,-4.0,29.97,SSE,167,1.0,5.0,34,0.00,,,0.00,weatherlink.com 1.10,2013-01-22 18:07:00,
2013-01-22 13:23:00,21.4,-4.0,29.97,West,274,3.0,6.0,33,0.00,,,0.00,weatherlink.com 1.10,2013-01-22 18:23:00,
2013-01-22 13:38:00,21.5,-4.0,29.97,ESE,122,1.0,7.0,33,0.00,,,0.00,weatherlink.com 1.10,2013-01-22 18:38:00,
2013-01-22 13:53:00,21.8,-3.0,29.98,SW,214,0.0,4.0,34,0.00,,,0.00,weatherlink.com 1.10,2013-01-22 18:53:00,
2013-01-22 14:08:00,21.5,-4.0,29.98,West,276,0.0,3.0,32,0.00,,,0.00,weatherlink.com 1.10,2013-01-22 19:08:00,
2013-01-22 14:23:00,21.1,-4.0,29.98,WSW,258,1.0,4.0,33,0.00,,,0.00,weatherlink.com 1.10,2013-01-22 19:23:00,
2013-01-22 14:38:00,21.3,-4.0,29.99,East,82,1.0,6.0,32,0.00,,,0.00,weatherlink.com 1.10,2013-01-22 19:38:00,
2013-01-22 14:53:00,21.4,-4.0,29.99,East,85,3.0,4.0,32,0.00,,,0.00,weatherlink.com 1.10,2013-01-22 19:53:00,
2013-01-22 15:08:00,20.1,-6.0,30.00,West,271,2.0,5.0,32,0.00,,,0.00,weatherlink.com 1.10,2013-01-22 20:08:00,
2013-01-22 15:23:00,19.2,-5.0,30.01,East,84,0.0,5.0,34,0.00,,,0.00,weatherlink.com 1.10,2013-01-22 20:23:00,
2013-01-22 15:38:00,18.8,-5.0,30.01,West,267,1.0,3.0,34,0.00,,,0.00,weatherlink.com 1.10,2013-01-22 20:38:00,
2013-01-22 15:53:00,19.6,-5.0,30.02,WNW,297,2.0,6.0,33,0.00,,,0.00,weatherlink.com 1.10,2013-01-22 20:53:00,
2013-01-22 16:08:00,18.8,-5.0,30.03,ESE,117,1.0,5.0,35,0.00,,,0.00,weatherlink.com 1.10,2013-01-22 21:08:00,
2013-01-22 16:23:00,18.0,-5.0,30.04,SSE,150,0.0,3.0,36,0.00,,,0.00,weatherlink.com 1.10,2013-01-22 21:23:00,
2013-01-22 16:39:00,17.5,-5.0,30.04,SW,235,0.0,2.0,36,0.00,,,0.00,weatherlink.com 1.10,2013-01-22 21:39:00,
2013-01-22 16:54:00,17.1,-5.0,30.05,WNW,285,0.0,4.0,38,0.00,,,0.00,weatherlink.com 1.10,2013-01-22 21:54:00,
2013-01-22 17:09:00,16.5,-3.0,30.06,ESE,117,0.0,2.0,42,0.00,,,0.00,weatherlink.com 1.10,2013-01-22 22:09:00,
2013-01-22 17:24:00,15.8,-2.0,30.07,West,271,1.0,1.0,45,0.00,,,0.00,weatherlink.com 1.10,2013-01-22 22:24:00,
2013-01-22 17:39:00,15.4,-2.0,30.08,SE,127,0.0,1.0,47,0.00,,,0.00,weatherlink.com 1.10,2013-01-22 22:39:00,
2013-01-22 17:54:00,15.4,-2.0,30.09,SE,127,0.0,4.0,46,0.00,,,0.00,weatherlink.com 1.10,2013-01-22 22:54:00,
2013-01-22 18:09:00,15.1,-2.0,30.09,SE,139,0.0,1.0,47,0.00,,,0.00,weatherlink.com 1.10,2013-01-22 23:09:00,
2013-01-22 18:24:00,15.1,-2.0,30.10,East,99,1.0,4.0,46,0.00,,,0.00,weatherlink.com 1.10,2013-01-22 23:24:00,
2013-01-22 18:39:00,14.9,-4.0,30.11,WNW,293,0.0,2.0,43,0.00,,,0.00,weatherlink.com 1.10,2013-01-22 23:39:00,
2013-01-22 18:54:00,14.3,-2.0,30.11,NNW,331,0.0,1.0,48,0.00,,,0.00,weatherlink.com 1.10,2013-01-22 23:54:00,
2013-01-22 19:09:00,14.0,-1.0,30.12,ESE,120,1.0,1.0,51,0.00,,,0.00,weatherlink.com 1.10,2013-01-23 00:09:00,
2013-01-22 19:24:00,14.1,-2.0,30.12,ESE,122,0.0,2.0,49,0.00,,,0.00,weatherlink.com 1.10,2013-01-23 00:24:00,
2013-01-22 19:39:00,14.2,-4.0,30.12,East,92,2.0,4.0,44,0.00,,,0.00,weatherlink.com 1.10,2013-01-23 00:39:00,
2013-01-22 19:55:00,14.2,-5.0,30.12,WSW,256,0.0,5.0,42,0.00,,,0.00,weatherlink.com 1.10,2013-01-23 00:55:00,
2013-01-22 20:10:00,13.8,-6.0,30.13,East,94,2.0,3.0,42,0.00,,,0.00,weatherlink.com 1.10,2013-01-23 01:10:00,
2013-01-22 20:25:00,13.5,-7.0,30.14,ESE,115,0.0,6.0,40,0.00,,,0.00,weatherlink.com 1.10,2013-01-23 01:25:00,
2013-01-22 20:40:00,13.0,-6.0,30.14,ESE,103,1.0,2.0,43,0.00,,,0.00,weatherlink.com 1.10,2013-01-23 01:40:00,
2013-01-22 20:55:00,12.6,-5.0,30.14,SSE,149,0.0,3.0,45,0.00,,,0.00,weatherlink.com 1.10,2013-01-23 01:55:00,
2013-01-22 21:10:00,12.0,-5.0,30.14,ESE,108,0.0,5.0,46,0.00,,,0.00,weatherlink.com 1.10,2013-01-23 02:10:00,
2013-01-22 21:25:00,11.8,-6.0,30.15,East,88,2.0,4.0,45,0.00,,,0.00,weatherlink.com 1.10,2013-01-23 02:25:00,
2013-01-22 21:40:00,11.7,-7.0,30.15,ESE,119,0.0,3.0,43,0.00,,,0.00,weatherlink.com 1.10,2013-01-23 02:40:00,
2013-01-22 21:55:00,11.5,-7.0,30.15,SSW,210,1.0,4.0,44,0.00,,,0.00,weatherlink.com 1.10,2013-01-23 02:55:00,
2013-01-22 22:10:00,11.4,-7.0,30.16,West,278,0.0,4.0,43,0.00,,,0.00,weatherlink.com 1.10,2013-01-23 03:10:00,
2013-01-22 22:25:00,11.1,-7.0,30.16,SE,127,0.0,3.0,44,0.00,,,0.00,weatherlink.com 1.10,2013-01-23 03:25:00,
2013-01-22 22:40:00,10.6,-6.0,30.17,SSE,165,0.0,1.0,47,0.00,,,0.00,weatherlink.com 1.10,2013-01-23 03:40:00,
2013-01-22 22:55:00,10.1,-6.0,30.17,SW,219,0.0,1.0,49,0.00,,,0.00,weatherlink.com 1.10,2013-01-23 03:55:00,
2013-01-22 23:10:00,9.6,-5.0,30.17,SW,219,0.0,0.0,51,0.00,,,0.00,weatherlink.com 1.10,2013-01-23 04:10:00,
2013-01-22 23:26:00,9.3,-4.0,30.17,SSE,155,0.0,1.0,54,0.00,,,0.00,weatherlink.com 1.10,2013-01-23 04:26:00,
2013-01-22 23:41:00,8.9,-4.0,30.17,SW,224,0.0,0.0,55,0.00,,,0.00,weatherlink.com 1.10,2013-01-23 04:41:00,
2013-01-22 23:56:00,8.3,-3.0,30.16,SW,224,0.0,0.0,59,0.00,,,0.00,weatherlink.com 1.10,2013-01-23 04:56:00,